DW1695 Weather Reports


time (UTC)temp
F
wind
direction
speed
knots
gust
knots
rain 1hr
in
rain 24hr
in
rain mn
in
humidity
%
barometer
mb
20260510011504 50 148 1.7 5.2 0.13 0.54 0.54 95 1007.7
20260510011003 50 157 1.7 4.3 0.15 0.54 0.54 95 1007.7
20260510010503 50 160 1.7 4.3 0.17 0.54 0.54 95 1007.7
20260510010004 50 152 1.7 2.6 0.19 0.54 0.54 95 1007.7
20260510005503 50 160 1.7 4.3 0.21 0.54 0.54 95 1007.6
20260510004504 50 171 2.6 5.2 0.28 0.54 0.54 95 1007.3
20260510004004 50 142 2.6 5.2 0.30 0.53 0.53 95 1007.7
20260510003505 50 155 3.5 6.1 0.34 0.52 0.52 95 1007.9
20260510003004 50 153 2.6 4.3 0.33 0.50 0.50 95 1008.3
20260510002504 50 255 4.3 6.1 0.31 0.47 0.47 94 1008.8
20260510002003 50 296 2.6 6.1 0.27 0.43 0.43 94 1008.9
20260510001003 50 333 2.6 6.1 0.23 0.39 0.39 94 1008.6
20260509235503 50 265 4.3 14.8 0.17 0.33 0.33 93 1008.5
20260509234504 51 332 4.3 10.4 0.10 0.26 0.26 90 1007.8
20260509234003 51 22 4.3 17.4 0.07 0.23 0.23 89 1007.5
20260509233503 52 357 6.1 13.0 0.02 0.18 0.18 86 1007.5
20260509233005 55 337 6.1 17.4 0.01 0.17 0.17 80 1007.2
20260509232503 59 248 5.2 14.8 0.00 0.16 0.16 74 1006.8
20260509232003 61 275 1.7 2.6 0.00 0.16 0.16 72 1006.0
20260509231504 61 180 1.7 2.6 0.00 0.16 0.16 69 1005.6
20260509230504 62 198 0.9 2.6 0.00 0.16 0.16 66 1005.7
20260509230004 62 276 2.6 6.1 0.00 0.16 0.16 66 1005.6
20260509225503 62 136 0.9 2.6 0.00 0.16 0.16 66 1005.6
20260509225004 62 176 0.9 5.2 0.00 0.16 0.16 65 1005.5
20260509224504 62 230 0.9 4.3 0.00 0.16 0.16 65 1005.4
20260509223503 62 137 3.5 7.8 0.00 0.16 0.16 65 1004.9
20260509223004 62 144 1.7 7.8 0.00 0.16 0.16 66 1004.9
20260509222504 62 161 2.6 4.3 0.00 0.16 0.16 65 1004.9
20260509222004 63 149 3.5 7.0 0.00 0.16 0.16 63 1005.0
20260509221503 63 184 2.6 11.3 0.00 0.16 0.16 63 1005.0
20260509220503 64 158 3.5 6.1 0.00 0.16 0.16 62 1005.0
20260509220003 64 148 1.7 6.1 0.00 0.16 0.16 61 1004.9
20260509215504 64 223 3.5 7.0 0.00 0.16 0.16 61 1005.0
20260509214003 64 232 4.3 7.8 0.00 0.16 0.16 61 1004.8
20260509213003 64 128 4.3 10.4 0.00 0.16 0.16 61 1004.8
20260509212503 64 150 4.3 8.7 0.00 0.16 0.16 61 1004.9
20260509212004 64 208 5.2 10.4 0.00 0.16 0.16 61 1004.9
20260509211504 64 177 4.3 10.4 0.00 0.16 0.16 62 1005.0
20260509211003 64 236 4.3 8.7 0.00 0.16 0.16 63 1005.0
20260509210504 64 179 6.1 11.3 0.00 0.16 0.16 63 1005.0
20260509210004 64 213 5.2 8.7 0.00 0.16 0.16 63 1005.2
20260509205504 64 201 5.2 11.3 0.00 0.16 0.16 64 1005.2
20260509204504 63 149 2.6 8.7 0.00 0.16 0.16 66 1005.4
20260509204004 63 196 4.3 10.4 0.00 0.16 0.16 65 1005.6
20260509203503 63 156 3.5 7.0 0.00 0.16 0.16 65 1005.6
20260509203004 63 172 4.3 10.4 0.00 0.16 0.16 66 1005.5
20260509202504 63 156 3.5 10.4 0.00 0.16 0.16 66 1005.4
20260509202004 63 142 2.6 10.4 0.00 0.16 0.16 66 1005.6
20260509201003 63 178 2.6 7.8 0.00 0.16 0.16 65 1005.7
20260509200503 63 142 4.3 8.7 0.00 0.16 0.16 66 1005.7
20260509195503 63 160 4.3 7.8 0.00 0.16 0.16 67 1006.0
20260509195005 63 111 2.6 8.7 0.00 0.16 0.16 67 1006.0
20260509194504 62 149 5.2 10.4 0.00 0.16 0.16 67 1005.9
20260509194004 62 165 5.2 11.3 0.00 0.16 0.16 68 1005.9
20260509193505 62 142 5.2 10.4 0.00 0.16 0.16 68 1006.0
20260509193004 62 140 8.7 12.2 0.00 0.16 0.16 67 1006.1
20260509192504 62 145 5.2 12.2 0.00 0.16 0.16 69 1006.2
20260509191503 61 158 5.2 12.2 0.00 0.16 0.16 70 1006.4
20260509190504 60 150 4.3 7.8 0.00 0.16 0.16 72 1006.5
20260509190003 60 151 2.6 6.1 0.00 0.16 0.16 75 1006.6
20260509185504 59 152 5.2 10.4 0.00 0.16 0.16 74 1006.7
20260509185003 59 197 2.6 7.0 0.00 0.16 0.16 74 1006.9
20260509184505 59 188 4.3 8.7 0.00 0.16 0.16 75 1006.9
20260509184004 60 200 2.6 7.8 0.00 0.16 0.16 76 1006.9
20260509183504 59 179 2.6 8.7 0.00 0.16 0.16 76 1006.9
20260509183003 59 62 2.6 6.1 0.00 0.16 0.16 77 1006.9
20260509182504 58 140 4.3 8.7 0.00 0.16 0.16 78 1006.8
20260509182004 58 183 2.6 10.4 0.00 0.16 0.16 80 1006.9
20260509181503 58 174 5.2 14.8 0.00 0.16 0.16 81 1006.8
20260509181004 58 163 2.6 7.0 0.00 0.16 0.16 80 1006.8
20260509180504 58 162 2.6 10.4 0.00 0.16 0.16 83 1007.0
20260509180003 57 204 1.7 4.3 0.00 0.16 0.16 84 1007.0
20260509175504 57 112 1.7 5.2 0.00 0.16 0.16 84 1007.2
20260509175003 57 146 2.6 7.0 0.00 0.16 0.16 83 1007.3
20260509174504 57 155 2.6 7.8 0.00 0.16 0.16 84 1007.3
20260509174004 57 226 3.5 7.0 0.00 0.16 0.16 84 1007.3
20260509173503 57 192 2.6 6.1 0.00 0.16 0.16 86 1007.4
20260509173004 56 174 1.7 6.1 0.00 0.16 0.16 88 1007.4
20260509172504 56 178 1.7 5.2 0.00 0.16 0.16 88 1007.4
20260509172004 55 150 3.5 7.8 0.00 0.16 0.16 88 1007.5
20260509171504 55 143 2.6 7.8 0.00 0.16 0.16 89 1007.5
20260509171004 55 160 1.7 7.8 0.00 0.16 0.16 90 1007.6
20260509170504 55 148 2.6 7.8 0.00 0.16 0.16 90 1007.7
20260509170004 54 156 2.6 7.0 0.00 0.16 0.16 90 1007.8
20260509165503 55 150 2.6 7.0 0.00 0.16 0.16 90 1007.8
20260509165004 54 308 1.7 6.1 0.00 0.16 0.16 91 1007.8
20260509164003 54 139 1.7 5.2 0.00 0.16 0.16 93 1007.7
20260509163504 54 231 2.6 4.3 0.00 0.16 0.16 94 1007.6
20260509163004 53 154 2.6 5.2 0.00 0.16 0.16 94 1007.7
20260509162504 53 312 0.9 2.6 0.00 0.16 0.16 95 1007.7
20260509162002 53 142 2.6 7.0 0.00 0.16 0.16 94 1007.7
20260509161502 53 202 1.7 2.6 0.00 0.16 0.16 95 1007.6
20260509161003 53 133 0.9 2.6 0.00 0.16 0.16 96 1007.6
20260509160503 52 163 2.6 7.8 0.00 0.16 0.16 95 1007.7
20260509160002 52 160 1.7 4.3 0.00 0.16 0.16 96 1007.7
20260509155002 51 161 2.6 6.1 0.00 0.16 0.16 96 1007.8
20260509154504 51 131 1.7 4.3 0.00 0.16 0.16 97 1007.8
20260509154004 51 220 0.9 4.3 0.00 0.16 0.16 97 1007.8
20260509153503 51 157 1.7 4.3 0.00 0.16 0.16 97 1007.8
20260509153003 51 146 2.6 4.3 0.00 0.16 0.16 97 1007.8
20260509152503 51 198 0.9 2.6 0.00 0.16 0.16 97 1007.9
20260509152002 51 330 0.9 2.6 0.00 0.16 0.16 97 1007.9
20260509151502 50 147 1.7 2.6 0.00 0.16 0.16 97 1007.9
20260509151003 50 130 1.7 5.2 0.00 0.16 0.16 97 1007.9
20260509150002 50 148 1.7 2.6 0.00 0.16 0.16 97 1007.9
20260509145003 50 212 0.9 2.6 0.00 0.16 0.16 97 1007.9
20260509144503 50 176 0.9 2.6 0.00 0.16 0.16 97 1007.9
20260509144003 50 153 1.7 5.2 0.00 0.16 0.16 97 1007.9
20260509143503 50 226 1.7 5.2 0.00 0.16 0.16 97 1007.8
20260509143003 50 160 2.6 7.8 0.00 0.16 0.16 97 1007.8
20260509142503 50 176 0.9 4.3 0.00 0.16 0.16 97 1007.9
20260509142003 50 192 0.9 4.3 0.00 0.16 0.16 97 1007.8
20260509141503 50 143 0.9 2.6 0.00 0.16 0.16 97 1007.8
20260509141002 50 201 0.9 2.6 0.00 0.16 0.16 97 1007.8
20260509140504 50 238 0.9 2.6 0.00 0.16 0.16 97 1007.9
20260509140005 50 226 0.9 2.6 0.00 0.16 0.16 97 1007.8
20260509135502 50 230 0.9 1.7 0.00 0.16 0.16 97 1007.8
20260509135003 50 229 1.7 2.6 0.00 0.16 0.16 97 1007.8
20260509134504 49 150 0.9 2.6 0.00 0.16 0.16 97 1007.7
20260509133004 49 172 0.0 5.2 0.00 0.16 0.16 97 1007.9
20260509132503 49 212 2.6 4.3 0.00 0.16 0.16 97 1007.9
20260509132003 49 153 0.0 0.0 0.00 0.16 0.16 98 1007.9
20260509131504 49 155 1.7 2.6 0.00 0.16 0.16 97 1007.9
20260509130503 49 143 2.6 4.3 0.00 0.16 0.16 97 1007.9
20260509130002 49 135 1.7 4.3 0.01 0.16 0.16 97 1008.0
20260509125003 49 140 2.6 4.3 0.01 0.16 0.16 97 1008.1
20260509124503 49 146 1.7 4.3 0.01 0.16 0.16 97 1008.2
20260509124003 49 158 0.9 2.6 0.01 0.17 0.16 97 1008.2
20260509123504 49 167 1.7 2.6 0.01 0.17 0.16 97 1008.3
20260509123003 48 184 0.9 2.6 0.01 0.17 0.16 97 1008.3
20260509122003 48 137 1.7 2.6 0.01 0.19 0.16 97 1008.3
20260509121502 48 151 1.7 2.6 0.01 0.22 0.16 97 1008.4
20260509121003 48 162 1.7 2.6 0.01 0.24 0.16 97 1008.5
20260509120003 48 170 0.0 1.7 0.00 0.23 0.15 97 1008.5
20260509115503 48 167 0.0 0.0 0.00 0.23 0.15 97 1008.5
20260509115002 48 159 0.0 0.0 0.00 0.23 0.15 97 1008.6
20260509114503 48 159 0.0 0.0 0.00 0.23 0.15 97 1008.6
20260509114002 48 159 0.0 0.0 0.00 0.23 0.15 97 1008.5
20260509113504 48 159 0.0 2.6 0.00 0.24 0.15 97 1008.5
20260509113003 48 154 0.9 1.7 0.00 0.24 0.15 97 1008.5
20260509112503 48 169 0.9 2.6 0.00 0.24 0.15 97 1008.5
20260509112003 48 158 1.7 2.6 0.00 0.24 0.15 97 1008.5
20260509111504 48 150 0.9 2.6 0.00 0.24 0.15 97 1008.3
20260509111003 48 153 0.9 1.7 0.00 0.26 0.15 97 1008.3
20260509110503 48 158 0.9 1.7 0.00 0.28 0.15 97 1008.4
20260509110003 48 158 0.9 1.7 0.00 0.28 0.15 97 1008.3
20260509105502 48 160 0.9 1.7 0.00 0.28 0.15 97 1008.3
20260509104503 48 151 0.9 2.6 0.00 0.28 0.15 97 1008.3
20260509103503 48 152 0.9 2.6 0.00 0.28 0.15 97 1008.3
20260509103003 48 164 1.7 2.6 0.00 0.28 0.15 97 1008.3
20260509102503 48 182 0.9 2.6 0.00 0.28 0.15 97 1008.4
20260509102003 48 149 0.9 2.6 0.00 0.28 0.15 97 1008.4
20260509101004 48 160 0.0 2.6 0.00 0.28 0.15 97 1008.5
20260509100503 48 151 0.0 2.6 0.00 0.29 0.15 97 1008.4
20260509100002 48 152 0.9 2.6 0.00 0.29 0.15 97 1008.5
20260509095503 48 155 1.7 2.6 0.01 0.29 0.15 97 1008.5
20260509095004 48 146 0.9 2.6 0.01 0.30 0.15 97 1008.5
20260509094503 48 144 0.9 2.6 0.01 0.30 0.15 97 1008.5
20260509094003 48 185 0.9 1.7 0.01 0.30 0.15 97 1008.5
20260509093005 48 165 0.0 0.9 0.02 0.30 0.15 97 1008.6
20260509092003 47 165 0.0 1.7 0.03 0.30 0.15 96 1008.6
20260509091503 47 166 0.9 1.7 0.04 0.30 0.15 96 1008.5
20260509091003 47 166 0.0 0.0 0.04 0.30 0.15 96 1008.4
20260509090504 47 172 0.0 0.0 0.05 0.30 0.15 96 1008.4
20260509090003 47 173 0.0 1.7 0.05 0.30 0.15 96 1008.3
20260509085502 47 175 0.9 2.6 0.04 0.29 0.14 96 1008.5
20260509085003 47 172 0.0 0.0 0.05 0.29 0.14 96 1008.5
20260509084503 47 172 0.0 0.0 0.05 0.29 0.14 96 1008.5
20260509084003 47 172 0.0 0.0 0.05 0.29 0.14 96 1008.5
20260509083503 47 175 0.0 0.0 0.05 0.28 0.13 96 1008.6
20260509083003 47 175 0.0 0.0 0.06 0.28 0.13 96 1008.6
20260509082503 47 175 0.0 0.0 0.06 0.27 0.12 96 1008.6
20260509082003 47 175 0.0 0.0 0.06 0.27 0.12 96 1008.6
20260509081502 47 176 0.0 0.0 0.06 0.26 0.11 96 1008.6
20260509081003 47 175 0.0 0.0 0.07 0.26 0.11 96 1008.6
20260509080503 47 175 0.0 0.0 0.07 0.25 0.10 96 1008.7
20260509075503 47 160 0.0 0.0 0.07 0.25 0.10 96 1008.7
20260509075004 47 160 0.0 2.6 0.07 0.24 0.09 96 1008.7
20260509074503 47 166 0.9 2.6 0.07 0.24 0.09 96 1008.7
20260509074003 47 167 0.9 1.7 0.07 0.24 0.09 96 1008.8
20260509073503 47 167 0.9 1.7 0.07 0.23 0.08 96 1008.7
20260509073003 47 169 1.7 4.3 0.06 0.22 0.07 96 1008.7
20260509072503 47 212 0.9 2.6 0.05 0.21 0.06 95 1008.8
20260509072003 48 167 1.7 2.6 0.05 0.21 0.06 95 1008.8
20260509070503 48 156 1.7 5.2 0.03 0.18 0.03 95 1008.9
20260509070003 48 165 0.9 2.6 0.03 0.18 0.03 95 1009.0
20260509065503 48 162 0.9 1.7 0.03 0.18 0.03 95 1009.0
20260509065004 48 162 1.7 2.6 0.02 0.17 0.02 95 1009.2
20260509064503 48 167 1.7 2.6 0.02 0.17 0.02 95 1009.2
20260509064003 48 174 1.7 2.6 0.02 0.17 0.02 95 1009.2
20260509063503 48 162 0.9 2.6 0.01 0.16 0.01 95 1009.3
20260509063004 48 161 0.9 2.6 0.01 0.16 0.01 95 1009.4
20260509062503 48 164 1.7 4.3 0.01 0.16 0.01 94 1009.6
20260509062003 48 158 1.7 2.6 0.01 0.16 0.01 95 1009.6
20260509061504 48 176 2.6 5.2 0.01 0.16 0.01 95 1009.6
20260509061003 48 153 1.7 2.6 0.00 0.15 0.00 95 1009.7
20260509060502 48 143 1.7 2.6 0.00 0.15 0.00 95 1009.9
20260509060003 48 149 1.7 2.6 0.00 0.15 0.00 95 1009.9
20260509054003 48 140 1.7 2.6 0.00 0.15 0.00 94 1010.1
20260509052504 48 163 1.7 2.6 0.00 0.15 0.00 94 1010.4
20260509052003 48 165 0.9 2.6 0.00 0.15 0.00 94 1010.4
20260509051503 48 150 1.7 4.3 0.00 0.15 0.00 93 1010.4
20260509051003 48 155 2.6 4.3 0.00 0.15 0.00 93 1010.4
20260509050503 48 160 1.7 2.6 0.00 0.15 0.00 93 1010.4
20260509045003 48 161 0.9 2.6 0.00 0.15 0.00 92 1010.6
20260509044504 48 157 1.7 2.6 0.00 0.15 0.00 92 1010.5
20260509044003 48 162 0.9 2.6 0.00 0.15 0.00 92 1010.6
20260509043504 48 191 1.7 2.6 0.00 0.15 0.00 91 1010.7
20260509042505 49 167 0.9 2.6 0.00 0.15 0.00 90 1010.7
20260509042005 49 166 1.7 2.6 0.00 0.15 0.00 90 1010.7
20260509041505 49 164 1.7 5.2 0.00 0.15 0.00 89 1010.8
20260509041003 49 141 1.7 2.6 0.00 0.15 0.00 89 1010.7
20260509040505 49 150 1.7 2.6 0.00 0.15 0.00 88 1010.7
20260509035503 49 146 1.7 2.6 0.00 0.15 0.15 87 1010.7
20260509035003 50 183 0.9 2.6 0.00 0.15 0.15 87 1010.8
20260509034504 50 237 1.7 2.6 0.00 0.15 0.15 87 1010.8
20260509034004 50 187 1.7 2.6 0.00 0.15 0.15 87 1010.8
20260509033503 50 200 1.7 2.6 0.00 0.15 0.15 86 1010.9
20260509033004 50 181 0.9 2.6 0.00 0.15 0.15 86 1011.0
20260509032504 50 143 0.9 2.6 0.00 0.15 0.15 86 1010.9
20260509032003 50 138 0.9 2.6 0.00 0.15 0.15 86 1010.9
20260509031504 50 215 2.6 4.3 0.00 0.15 0.15 86 1011.0
20260509031003 49 158 0.9 2.6 0.00 0.15 0.15 86 1011.1
20260509030503 49 185 0.9 2.6 0.00 0.15 0.15 85 1011.1
20260509030003 49 179 0.0 0.0 0.00 0.15 0.15 85 1011.2
20260509025503 49 179 0.9 2.6 0.00 0.15 0.15 84 1011.2
20260509024003 49 195 0.0 0.9 0.00 0.15 0.15 82 1011.4
20260509023504 49 195 0.0 1.7 0.00 0.15 0.15 82 1011.4
20260509023003 49 222 0.9 2.6 0.00 0.15 0.15 81 1011.3
20260509022503 48 250 0.9 2.6 0.00 0.15 0.15 80 1011.3
20260509021503 48 271 0.0 0.0 0.00 0.15 0.15 79 1011.3
20260509021004 48 271 0.0 0.0 0.00 0.15 0.15 79 1011.3
20260509020504 49 271 0.0 0.0 0.00 0.15 0.15 79 1011.4
20260509020003 49 271 0.0 0.0 0.00 0.15 0.15 79 1011.3
20260509015503 49 271 0.0 0.0 0.00 0.15 0.15 79 1011.3
20260509015004 49 271 0.0 0.0 0.00 0.15 0.15 78 1011.3
20260509014503 49 271 0.0 0.0 0.00 0.15 0.15 77 1011.2
20260509013504 49 273 0.0 0.0 0.00 0.15 0.15 77 1011.2
20260509012503 49 273 0.0 0.0 0.00 0.15 0.15 76 1011.2
20260509012003 49 273 0.0 0.0 0.00 0.15 0.15 76 1011.1